Time,TemperatureF,DewpointF,PressureIn,WindDirection,WindDirectionDegrees,WindSpeedMPH,WindSpeedGustMPH,Humidity,HourlyPrecipIn,Conditions,Clouds,dailyrainin,SoftwareType,DateUTC
2013-07-07 00:02:00,78.4,67.4,29.97,SE,138,1.0,5.0,69,0.00,,---,0.00,VWS V13.01,2013-07-07 05:02:00,
2013-07-07 00:07:00,78.3,67.3,29.97,SE,138,1.0,3.0,69,0.00,,---,0.00,VWS V13.01,2013-07-07 05:07:00,
2013-07-07 00:12:00,78.2,67.6,29.97,SE,138,3.0,3.0,70,0.00,,---,0.00,VWS V13.01,2013-07-07 05:12:00,
2013-07-07 00:17:00,78.0,67.4,29.97,SE,138,0.0,4.0,70,0.00,,---,0.00,VWS V13.01,2013-07-07 05:17:00,
2013-07-07 00:23:00,77.9,67.3,29.97,SE,137,0.0,6.0,70,0.00,,---,0.00,VWS V13.01,2013-07-07 05:23:00,
2013-07-07 00:28:00,77.7,67.6,29.96,SE,137,0.0,6.0,71,0.00,,---,0.00,VWS V13.01,2013-07-07 05:28:00,
2013-07-07 00:33:00,77.6,67.5,29.97,SE,138,0.0,6.0,71,0.00,,---,0.00,VWS V13.01,2013-07-07 05:33:00,
2013-07-07 00:38:00,77.5,67.4,29.97,SE,137,1.0,1.0,71,0.00,,---,0.00,VWS V13.01,2013-07-07 05:38:00,
2013-07-07 00:43:00,77.4,67.3,29.97,SE,138,0.0,3.0,71,0.00,,---,0.00,VWS V13.01,2013-07-07 05:43:00,
2013-07-07 00:48:00,77.3,67.2,29.97,SE,138,0.0,4.0,71,0.00,,---,0.00,VWS V13.01,2013-07-07 05:48:00,
2013-07-07 00:53:00,77.3,67.2,29.97,SE,137,1.0,4.0,71,0.00,,---,0.00,VWS V13.01,2013-07-07 05:53:00,
2013-07-07 00:58:00,77.2,67.5,29.97,SE,138,0.0,4.0,72,0.00,,---,0.00,VWS V13.01,2013-07-07 05:58:00,
2013-07-07 01:03:00,77.1,67.4,29.97,SE,137,0.0,4.0,72,0.00,,---,0.00,VWS V13.01,2013-07-07 06:03:00,
2013-07-07 01:08:00,76.9,67.2,29.97,SE,138,0.0,2.0,72,0.00,,---,0.00,VWS V13.01,2013-07-07 06:08:00,
2013-07-07 01:13:00,76.8,67.1,29.97,SE,138,0.0,3.0,72,0.00,,---,0.00,VWS V13.01,2013-07-07 06:13:00,
2013-07-07 01:18:00,76.7,67.4,29.97,SE,138,1.0,3.0,73,0.00,,---,0.00,VWS V13.01,2013-07-07 06:18:00,
2013-07-07 01:23:00,76.6,67.3,29.98,SE,138,0.0,3.0,73,0.00,,---,0.00,VWS V13.01,2013-07-07 06:23:00,
2013-07-07 01:28:00,76.5,67.6,29.97,SE,138,0.0,3.0,74,0.00,,---,0.00,VWS V13.01,2013-07-07 06:28:00,
2013-07-07 01:33:00,76.4,67.5,29.97,SE,138,2.0,3.0,74,0.00,,---,0.00,VWS V13.01,2013-07-07 06:33:00,
2013-07-07 01:38:00,76.3,67.4,29.98,SE,138,0.0,0.0,74,0.00,,---,0.00,VWS V13.01,2013-07-07 06:38:00,
2013-07-07 01:43:00,76.1,67.6,29.97,SE,137,0.0,0.0,75,0.00,,---,0.00,VWS V13.01,2013-07-07 06:43:00,
2013-07-07 01:48:00,76.0,67.5,29.97,SE,138,0.0,0.0,75,0.00,,---,0.00,VWS V13.01,2013-07-07 06:48:00,
2013-07-07 01:53:00,76.0,67.5,29.97,SE,137,0.0,0.0,75,0.00,,---,0.00,VWS V13.01,2013-07-07 06:53:00,
2013-07-07 01:58:00,75.9,67.8,29.97,SE,138,0.0,0.0,76,0.00,,---,0.00,VWS V13.01,2013-07-07 06:58:00,
2013-07-07 02:03:00,75.8,67.7,29.97,SE,137,0.0,0.0,76,0.00,,---,0.00,VWS V13.01,2013-07-07 07:03:00,
2013-07-07 02:08:00,75.8,67.7,29.97,SE,138,0.0,0.0,76,0.00,,---,0.00,VWS V13.01,2013-07-07 07:08:00,
2013-07-07 02:13:00,75.7,67.6,29.97,SE,137,0.0,0.0,76,0.00,,---,0.00,VWS V13.01,2013-07-07 07:13:00,
2013-07-07 02:18:00,75.7,67.6,29.97,SE,138,0.0,3.0,76,0.00,,---,0.00,VWS V13.01,2013-07-07 07:18:00,
2013-07-07 02:23:00,75.6,67.5,29.97,SE,138,0.0,3.0,76,0.00,,---,0.00,VWS V13.01,2013-07-07 07:23:00,
2013-07-07 02:28:00,75.5,67.4,29.97,SE,137,0.0,3.0,76,0.00,,---,0.00,VWS V13.01,2013-07-07 07:28:00,
2013-07-07 02:33:00,75.4,67.3,29.97,SE,138,0.0,3.0,76,0.00,,---,0.00,VWS V13.01,2013-07-07 07:33:00,
2013-07-07 02:38:00,75.3,67.2,29.97,SE,138,0.0,0.0,76,0.00,,---,0.00,VWS V13.01,2013-07-07 07:38:00,
2013-07-07 02:43:00,75.2,67.1,29.97,SE,137,0.0,0.0,76,0.00,,---,0.00,VWS V13.01,2013-07-07 07:43:00,
2013-07-07 02:48:00,75.1,67.0,29.97,SE,138,0.0,0.0,76,0.00,,---,0.00,VWS V13.01,2013-07-07 07:48:00,
2013-07-07 02:53:00,75.0,66.9,29.97,SE,138,0.0,0.0,76,0.00,,---,0.00,VWS V13.01,2013-07-07 07:53:00,
2013-07-07 02:58:00,74.9,67.2,29.97,SE,138,0.0,0.0,77,0.00,,---,0.00,VWS V13.01,2013-07-07 07:58:00,
2013-07-07 03:03:00,74.7,67.0,29.97,SE,138,0.0,0.0,77,0.00,,---,0.00,VWS V13.01,2013-07-07 08:03:00,
2013-07-07 03:08:00,74.6,66.9,29.97,SE,138,0.0,0.0,77,0.00,,---,0.00,VWS V13.01,2013-07-07 08:08:00,
2013-07-07 03:13:00,74.5,66.8,29.97,SE,138,1.0,5.0,77,0.00,,---,0.00,VWS V13.01,2013-07-07 08:13:00,
2013-07-07 03:18:00,74.4,67.1,29.97,SE,138,0.0,5.0,78,0.00,,---,0.00,VWS V13.01,2013-07-07 08:18:00,
2013-07-07 03:23:00,74.3,67.0,29.97,SE,138,0.0,5.0,78,0.00,,---,0.00,VWS V13.01,2013-07-07 08:23:00,
2013-07-07 03:28:00,74.3,67.0,29.97,SE,138,0.0,5.0,78,0.00,,---,0.00,VWS V13.01,2013-07-07 08:28:00,
2013-07-07 03:33:00,74.2,67.3,29.97,SE,138,0.0,5.0,79,0.00,,---,0.00,VWS V13.01,2013-07-07 08:33:00,
2013-07-07 03:38:00,74.2,67.3,29.97,SE,138,0.0,0.0,79,0.00,,---,0.00,VWS V13.01,2013-07-07 08:38:00,
2013-07-07 03:43:00,74.2,67.3,29.97,SE,138,0.0,0.0,79,0.00,,---,0.00,VWS V13.01,2013-07-07 08:43:00,
2013-07-07 03:48:00,74.2,67.3,29.97,SE,138,0.0,3.0,79,0.00,,---,0.00,VWS V13.01,2013-07-07 08:48:00,
2013-07-07 03:53:00,74.2,67.3,29.98,SE,137,2.0,3.0,79,0.00,,---,0.00,VWS V13.01,2013-07-07 08:53:00,
2013-07-07 03:58:00,74.1,67.2,29.98,SE,138,0.0,4.0,79,0.00,,---,0.00,VWS V13.01,2013-07-07 08:58:00,
2013-07-07 04:03:00,74.1,67.2,29.98,SE,138,0.0,4.0,79,0.00,,---,0.00,VWS V13.01,2013-07-07 09:03:00,
2013-07-07 04:08:00,74.0,67.1,29.98,SE,138,1.0,2.0,79,0.00,,---,0.00,VWS V13.01,2013-07-07 09:08:00,
2013-07-07 04:13:00,74.0,67.1,29.98,SE,138,0.0,2.0,79,0.00,,---,0.00,VWS V13.01,2013-07-07 09:13:00,
2013-07-07 04:18:00,73.9,67.0,29.98,SE,137,0.0,2.0,79,0.00,,---,0.00,VWS V13.01,2013-07-07 09:18:00,
2013-07-07 04:23:00,73.8,66.9,29.98,SE,138,0.0,2.0,79,0.00,,---,0.00,VWS V13.01,2013-07-07 09:23:00,
2013-07-07 04:28:00,73.8,67.2,29.98,SE,138,0.0,2.0,80,0.00,,---,0.00,VWS V13.01,2013-07-07 09:28:00,
2013-07-07 04:33:00,73.7,67.2,29.98,SE,137,0.0,2.0,80,0.00,,---,0.00,VWS V13.01,2013-07-07 09:33:00,
2013-07-07 04:38:00,73.6,67.1,29.98,SE,138,0.0,0.0,80,0.00,,---,0.00,VWS V13.01,2013-07-07 09:38:00,
2013-07-07 04:43:00,73.5,67.0,29.98,SE,138,0.0,0.0,80,0.00,,---,0.00,VWS V13.01,2013-07-07 09:43:00,
2013-07-07 04:48:00,73.4,66.9,29.98,SE,138,0.0,0.0,80,0.00,,---,0.00,VWS V13.01,2013-07-07 09:48:00,
2013-07-07 04:53:00,73.3,66.8,29.98,SE,137,0.0,0.0,80,0.00,,---,0.00,VWS V13.01,2013-07-07 09:53:00,
2013-07-07 04:58:00,73.2,66.7,29.98,SE,138,0.0,0.0,80,0.00,,---,0.00,VWS V13.01,2013-07-07 09:58:00,
2013-07-07 05:03:00,73.1,66.6,29.98,SE,137,0.0,0.0,80,0.00,,---,0.00,VWS V13.01,2013-07-07 10:03:00,
2013-07-07 05:08:00,73.0,66.8,29.99,SE,137,0.0,0.0,81,0.00,,---,0.00,VWS V13.01,2013-07-07 10:08:00,
2013-07-07 05:13:00,73.0,66.8,29.98,SE,138,0.0,1.0,81,0.00,,---,0.00,VWS V13.01,2013-07-07 10:13:00,
2013-07-07 05:19:00,72.9,66.7,29.98,SE,138,0.0,3.0,81,0.00,,---,0.00,VWS V13.01,2013-07-07 10:19:00,
2013-07-07 05:24:00,72.8,67.0,29.99,SE,138,2.0,3.0,82,0.00,,---,0.00,VWS V13.01,2013-07-07 10:24:00,
2013-07-07 05:29:00,72.7,66.9,29.99,SE,138,0.0,3.0,82,0.00,,---,0.00,VWS V13.01,2013-07-07 10:29:00,
2013-07-07 05:34:00,72.6,66.8,29.99,SE,138,0.0,4.0,82,0.00,,---,0.00,VWS V13.01,2013-07-07 10:34:00,
2013-07-07 05:39:00,72.6,67.2,29.99,SE,138,0.0,2.0,83,0.00,,---,0.00,VWS V13.01,2013-07-07 10:39:00,
2013-07-07 05:44:00,72.7,67.2,29.99,SE,137,0.0,2.0,83,0.00,,---,0.00,VWS V13.01,2013-07-07 10:44:00,
2013-07-07 05:49:00,72.6,67.2,29.99,SE,137,0.0,5.0,83,0.00,,---,0.00,VWS V13.01,2013-07-07 10:49:00,
2013-07-07 05:54:00,72.6,67.2,29.99,SE,138,0.0,5.0,83,0.00,,---,0.00,VWS V13.01,2013-07-07 10:54:00,
2013-07-07 05:59:00,72.6,67.2,29.99,SE,138,0.0,5.0,83,0.00,,---,0.00,VWS V13.01,2013-07-07 10:59:00,
2013-07-07 06:04:00,72.6,67.2,29.99,SE,138,2.0,5.0,83,0.00,,---,0.00,VWS V13.01,2013-07-07 11:04:00,
2013-07-07 06:09:00,72.6,67.2,30.00,SE,138,2.0,4.0,83,0.00,,---,0.00,VWS V13.01,2013-07-07 11:09:00,
2013-07-07 06:14:00,72.5,67.1,29.99,SE,138,0.0,4.0,83,0.00,,---,0.00,VWS V13.01,2013-07-07 11:14:00,
2013-07-07 06:19:00,72.4,66.9,29.99,SE,137,1.0,4.0,83,0.00,,---,0.00,VWS V13.01,2013-07-07 11:19:00,
2013-07-07 06:24:00,72.4,66.9,30.00,SE,137,1.0,6.0,83,0.00,,---,0.00,VWS V13.01,2013-07-07 11:24:00,
2013-07-07 06:29:00,72.4,67.3,29.99,SE,138,0.0,6.0,84,0.00,,---,0.00,VWS V13.01,2013-07-07 11:29:00,
2013-07-07 06:34:00,72.4,67.3,30.00,SE,138,0.0,6.0,84,0.00,,---,0.00,VWS V13.01,2013-07-07 11:34:00,
2013-07-07 06:39:00,72.4,67.3,30.00,SE,137,2.0,6.0,84,0.00,,---,0.00,VWS V13.01,2013-07-07 11:39:00,
2013-07-07 06:41:00,72.4,67.3,30.00,SE,138,0.0,6.0,84,0.00,,---,0.00,VWS V13.01,2013-07-07 11:41:00,
2013-07-07 06:46:00,72.4,67.3,30.00,SE,138,2.0,6.0,84,0.00,,---,0.00,VWS V13.01,2013-07-07 11:46:00,
2013-07-07 06:51:00,72.4,67.3,30.00,SE,138,3.0,7.0,84,0.00,,---,0.00,VWS V13.01,2013-07-07 11:51:00,
2013-07-07 06:56:00,72.5,67.4,30.01,SE,137,0.0,7.0,84,0.00,,---,0.00,VWS V13.01,2013-07-07 11:56:00,
2013-07-07 07:01:00,72.5,67.4,30.01,SE,138,1.0,7.0,84,0.00,,---,0.00,VWS V13.01,2013-07-07 12:01:00,
2013-07-07 07:06:00,72.6,67.5,30.01,SE,138,2.0,7.0,84,0.00,,---,0.00,VWS V13.01,2013-07-07 12:06:00,
2013-07-07 07:09:00,72.6,67.5,30.01,SE,138,0.0,4.0,84,0.00,,---,0.00,VWS V13.01,2013-07-07 12:09:00,
2013-07-07 07:14:00,72.7,67.6,30.01,SE,137,0.0,4.0,84,0.00,,---,0.00,VWS V13.01,2013-07-07 12:14:00,
2013-07-07 07:19:00,72.9,67.8,30.02,SE,137,3.0,4.0,84,0.00,,---,0.00,VWS V13.01,2013-07-07 12:19:00,
2013-07-07 07:24:00,73.0,67.9,30.02,SE,137,2.0,4.0,84,0.00,,---,0.00,VWS V13.01,2013-07-07 12:24:00,
2013-07-07 07:29:00,73.2,68.4,30.02,SE,138,3.0,5.0,85,0.00,,---,0.00,VWS V13.01,2013-07-07 12:29:00,
2013-07-07 07:34:00,73.5,68.4,30.02,SE,138,0.0,5.0,84,0.00,,---,0.00,VWS V13.01,2013-07-07 12:34:00,
2013-07-07 07:39:00,73.7,68.6,30.02,SE,138,0.0,2.0,84,0.00,,---,0.00,VWS V13.01,2013-07-07 12:39:00,
2013-07-07 07:44:00,74.1,69.0,30.02,SE,137,3.0,4.0,84,0.00,,---,0.00,VWS V13.01,2013-07-07 12:44:00,
2013-07-07 07:49:00,74.4,68.9,30.02,SE,138,1.0,4.0,83,0.00,,---,0.00,VWS V13.01,2013-07-07 12:49:00,
2013-07-07 07:54:00,74.8,69.3,30.02,SE,138,0.0,4.0,83,0.00,,---,0.00,VWS V13.01,2013-07-07 12:54:00,
2013-07-07 07:59:00,75.1,69.2,30.02,SE,137,0.0,5.0,82,0.00,,---,0.00,VWS V13.01,2013-07-07 12:59:00,
2013-07-07 08:04:00,75.5,69.6,30.02,SE,137,0.0,5.0,82,0.00,,---,0.00,VWS V13.01,2013-07-07 13:04:00,
2013-07-07 08:09:00,75.8,69.6,30.02,SE,136,2.0,4.0,81,0.00,,---,0.00,VWS V13.01,2013-07-07 13:09:00,
2013-07-07 08:14:00,76.1,69.8,30.02,SE,136,2.0,4.0,81,0.00,,---,0.00,VWS V13.01,2013-07-07 13:14:00,
2013-07-07 08:19:00,76.4,69.8,30.02,SE,136,1.0,4.0,80,0.00,,---,0.00,VWS V13.01,2013-07-07 13:19:00,
2013-07-07 08:24:00,76.7,70.1,30.02,SE,136,2.0,4.0,80,0.00,,---,0.00,VWS V13.01,2013-07-07 13:24:00,
2013-07-07 08:29:00,77.0,70.0,30.02,SE,136,2.0,4.0,79,0.00,,---,0.00,VWS V13.01,2013-07-07 13:29:00,
2013-07-07 08:34:00,77.2,70.2,30.02,SE,136,0.0,4.0,79,0.00,,---,0.00,VWS V13.01,2013-07-07 13:34:00,
2013-07-07 08:39:00,77.5,70.1,30.02,SE,136,3.0,4.0,78,0.00,,---,0.00,VWS V13.01,2013-07-07 13:39:00,
2013-07-07 08:44:00,77.6,70.2,30.03,SE,136,0.0,4.0,78,0.00,,---,0.00,VWS V13.01,2013-07-07 13:44:00,
2013-07-07 08:49:00,77.8,70.0,30.03,SE,136,0.0,4.0,77,0.00,,---,0.00,VWS V13.01,2013-07-07 13:49:00,
2013-07-07 08:54:00,78.1,70.3,30.03,SE,136,0.0,4.0,77,0.00,,---,0.00,VWS V13.01,2013-07-07 13:54:00,
2013-07-07 08:59:00,78.5,70.7,30.03,SE,136,0.0,4.0,77,0.00,,---,0.00,VWS V13.01,2013-07-07 13:59:00,
2013-07-07 09:04:00,78.7,70.5,30.03,SE,136,0.0,4.0,76,0.00,,---,0.00,VWS V13.01,2013-07-07 14:04:00,
2013-07-07 09:09:00,79.0,70.4,30.03,SE,136,0.0,0.0,75,0.00,,---,0.00,VWS V13.01,2013-07-07 14:09:00,
2013-07-07 09:14:00,79.3,70.7,30.03,SE,141,0.0,4.0,75,0.00,,---,0.00,VWS V13.01,2013-07-07 14:14:00,
2013-07-07 09:19:00,79.7,71.1,30.03,SE,141,0.0,4.0,75,0.00,,---,0.00,VWS V13.01,2013-07-07 14:19:00,
2013-07-07 09:24:00,79.9,71.3,30.03,SE,141,3.0,4.0,75,0.00,,---,0.00,VWS V13.01,2013-07-07 14:24:00,
2013-07-07 09:29:00,80.1,71.1,30.03,SE,141,0.0,4.0,74,0.00,,---,0.00,VWS V13.01,2013-07-07 14:29:00,
2013-07-07 09:34:00,80.3,71.3,30.03,SE,146,2.0,6.0,74,0.00,,---,0.00,VWS V13.01,2013-07-07 14:34:00,
2013-07-07 09:39:00,80.5,71.1,30.03,SSE,147,0.0,3.0,73,0.00,,---,0.00,VWS V13.01,2013-07-07 14:39:00,
2013-07-07 09:44:00,80.7,71.7,30.03,WSW,254,0.0,5.0,74,0.00,,---,0.00,VWS V13.01,2013-07-07 14:44:00,
2013-07-07 09:49:00,81.0,71.5,30.03,South,182,0.0,5.0,73,0.00,,---,0.00,VWS V13.01,2013-07-07 14:49:00,
2013-07-07 09:54:00,81.3,71.8,30.03,South,182,0.0,5.0,73,0.00,,---,0.00,VWS V13.01,2013-07-07 14:54:00,
2013-07-07 09:59:00,81.4,71.5,30.03,South,174,3.0,6.0,72,0.00,,---,0.00,VWS V13.01,2013-07-07 14:59:00,
2013-07-07 10:04:00,81.6,71.3,30.03,South,179,0.0,8.0,71,0.00,,---,0.00,VWS V13.01,2013-07-07 15:04:00,
2013-07-07 10:09:00,82.0,71.7,30.03,SW,224,0.0,5.0,71,0.00,,---,0.00,VWS V13.01,2013-07-07 15:09:00,
2013-07-07 10:14:00,82.5,72.2,30.04,South,177,1.0,5.0,71,0.00,,---,0.00,VWS V13.01,2013-07-07 15:14:00,
2013-07-07 10:19:00,82.9,72.1,30.03,South,179,3.0,7.0,70,0.00,,---,0.00,VWS V13.01,2013-07-07 15:19:00,
2013-07-07 10:24:00,83.4,72.2,30.04,SW,216,2.0,7.0,69,0.00,,---,0.00,VWS V13.01,2013-07-07 15:24:00,
2013-07-07 10:29:00,83.8,72.1,30.03,SW,230,0.0,7.0,68,0.00,,---,0.00,VWS V13.01,2013-07-07 15:29:00,
2013-07-07 10:34:00,84.0,71.9,30.03,SSW,198,1.0,11.0,67,0.00,,---,0.00,VWS V13.01,2013-07-07 15:34:00,
2013-07-07 10:39:00,84.1,72.0,30.03,SE,145,2.0,9.0,67,0.00,,---,0.00,VWS V13.01,2013-07-07 15:39:00,
2013-07-07 10:44:00,84.3,72.2,30.03,SE,146,0.0,9.0,67,0.00,,---,0.00,VWS V13.01,2013-07-07 15:44:00,
2013-07-07 10:49:00,84.4,71.8,30.03,SE,145,0.0,9.0,66,0.00,,---,0.00,VWS V13.01,2013-07-07 15:49:00,
2013-07-07 10:54:00,84.7,72.1,30.03,SE,146,0.0,9.0,66,0.00,,---,0.00,VWS V13.01,2013-07-07 15:54:00,
2013-07-07 10:59:00,85.0,72.4,30.03,South,184,4.0,9.0,66,0.00,,---,0.00,VWS V13.01,2013-07-07 15:59:00,
2013-07-07 11:04:00,85.0,71.9,30.03,SSW,202,0.0,9.0,65,0.00,,---,0.00,VWS V13.01,2013-07-07 16:04:00,
2013-07-07 11:09:00,85.4,70.9,30.03,South,169,1.0,8.0,62,0.00,,---,0.00,VWS V13.01,2013-07-07 16:09:00,
2013-07-07 11:14:00,85.6,70.1,30.03,SE,141,0.0,8.0,60,0.00,,---,0.00,VWS V13.01,2013-07-07 16:14:00,
2013-07-07 11:19:00,85.9,70.4,30.03,South,177,9.0,9.0,60,0.00,,---,0.00,VWS V13.01,2013-07-07 16:19:00,
2013-07-07 11:24:00,86.4,70.4,30.03,SSE,160,3.0,9.0,59,0.00,,---,0.00,VWS V13.01,2013-07-07 16:24:00,
2013-07-07 11:29:00,86.9,69.8,30.02,SSE,157,2.0,9.0,57,0.00,,---,0.00,VWS V13.01,2013-07-07 16:29:00,
2013-07-07 11:34:00,87.1,70.0,30.03,South,190,0.0,9.0,57,0.00,,---,0.00,VWS V13.01,2013-07-07 16:34:00,
2013-07-07 11:39:00,87.1,70.5,30.03,SSE,148,1.0,5.0,58,0.00,,---,0.00,VWS V13.01,2013-07-07 16:39:00,
2013-07-07 11:44:00,87.4,71.3,30.02,South,184,0.0,5.0,59,0.00,,---,0.00,VWS V13.01,2013-07-07 16:44:00,
2013-07-07 11:49:00,87.7,71.1,30.02,SSE,161,3.0,6.0,58,0.00,,---,0.00,VWS V13.01,2013-07-07 16:49:00,
2013-07-07 11:54:00,87.8,70.7,30.02,South,175,0.0,10.0,57,0.00,,---,0.00,VWS V13.01,2013-07-07 16:54:00,
2013-07-07 11:59:00,88.1,71.0,30.02,SSE,152,0.0,10.0,57,0.00,,---,0.00,VWS V13.01,2013-07-07 16:59:00,
2013-07-07 12:04:00,88.0,70.9,30.02,SSW,194,2.0,10.0,57,0.00,,---,0.00,VWS V13.01,2013-07-07 17:04:00,
2013-07-07 12:09:00,88.2,70.5,30.02,South,188,1.0,7.0,56,0.00,,---,0.00,VWS V13.01,2013-07-07 17:09:00,
2013-07-07 12:14:00,88.3,70.6,30.02,South,182,4.0,7.0,56,0.00,,---,0.00,VWS V13.01,2013-07-07 17:14:00,
2013-07-07 12:19:00,88.7,71.5,30.01,South,186,1.0,7.0,57,0.00,,---,0.00,VWS V13.01,2013-07-07 17:19:00,
2013-07-07 12:24:00,89.1,71.4,30.01,SW,227,4.0,11.0,56,0.00,,---,0.00,VWS V13.01,2013-07-07 17:24:00,
2013-07-07 12:29:00,89.3,70.5,30.02,ESE,111,5.0,11.0,54,0.00,,---,0.00,VWS V13.01,2013-07-07 17:29:00,
2013-07-07 12:34:00,89.5,70.1,30.01,SSE,155,3.0,11.0,53,0.00,,---,0.00,VWS V13.01,2013-07-07 17:34:00,
2013-07-07 12:39:00,90.5,70.5,30.01,ESE,123,2.0,11.0,52,0.00,,---,0.00,VWS V13.01,2013-07-07 17:39:00,
2013-07-07 12:44:00,90.9,69.7,30.01,SSE,153,4.0,11.0,50,0.00,,---,0.00,VWS V13.01,2013-07-07 17:44:00,
2013-07-07 12:49:00,90.5,71.1,30.01,SW,223,0.0,11.0,53,0.00,,---,0.00,VWS V13.01,2013-07-07 17:49:00,
2013-07-07 12:54:00,90.4,69.8,30.01,SSW,209,1.0,11.0,51,0.00,,---,0.00,VWS V13.01,2013-07-07 17:54:00,
2013-07-07 12:59:00,90.3,70.3,30.01,SSW,203,3.0,11.0,52,0.00,,---,0.00,VWS V13.01,2013-07-07 17:59:00,
2013-07-07 13:04:00,91.0,69.8,30.00,ENE,68,1.0,11.0,50,0.00,,---,0.00,VWS V13.01,2013-07-07 18:04:00,
2013-07-07 13:09:00,92.0,71.3,30.00,South,172,0.0,6.0,51,0.00,,---,0.00,VWS V13.01,2013-07-07 18:09:00,
2013-07-07 13:14:00,91.3,70.1,30.00,SE,133,2.0,9.0,50,0.00,,---,0.00,VWS V13.01,2013-07-07 18:14:00,
2013-07-07 13:19:00,90.6,70.6,30.00,ENE,77,0.0,10.0,52,0.00,,---,0.00,VWS V13.01,2013-07-07 18:19:00,
2013-07-07 13:24:00,91.9,70.6,30.00,SSE,157,2.0,10.0,50,0.00,,---,0.00,VWS V13.01,2013-07-07 18:24:00,
2013-07-07 13:29:00,91.9,70.0,29.99,SSE,155,0.0,10.0,49,0.00,,---,0.00,VWS V13.01,2013-07-07 18:29:00,
2013-07-07 13:34:00,92.0,70.7,29.99,SSW,196,0.0,10.0,50,0.00,,---,0.00,VWS V13.01,2013-07-07 18:34:00,
2013-07-07 13:39:00,91.2,70.0,29.99,SSW,195,0.0,0.0,50,0.00,,---,0.00,VWS V13.01,2013-07-07 18:39:00,
2013-07-07 13:44:00,91.2,70.0,30.00,South,177,0.0,6.0,50,0.00,,---,0.00,VWS V13.01,2013-07-07 18:44:00,
2013-07-07 13:49:00,91.0,69.2,29.99,NE,36,0.0,6.0,49,0.00,,---,0.00,VWS V13.01,2013-07-07 18:49:00,
2013-07-07 13:54:00,91.2,70.6,30.00,SSE,154,0.0,10.0,51,0.00,,---,0.00,VWS V13.01,2013-07-07 18:54:00,
2013-07-07 13:59:00,91.9,71.8,29.99,SSE,152,0.0,12.0,52,0.00,,---,0.00,VWS V13.01,2013-07-07 18:59:00,
2013-07-07 14:04:00,92.4,68.6,29.99,South,190,0.0,12.0,46,0.00,,---,0.00,VWS V13.01,2013-07-07 19:04:00,
2013-07-07 14:09:00,91.8,69.9,29.99,South,190,0.0,0.0,49,0.00,,---,0.00,VWS V13.01,2013-07-07 19:09:00,
2013-07-07 14:14:00,91.8,69.9,29.99,South,188,3.0,4.0,49,0.00,,---,0.00,VWS V13.01,2013-07-07 19:14:00,
2013-07-07 14:19:00,92.4,69.3,29.99,SSE,164,7.0,11.0,47,0.00,,---,0.00,VWS V13.01,2013-07-07 19:19:00,
2013-07-07 14:24:00,92.2,70.3,29.99,SSE,157,0.0,11.0,49,0.00,,---,0.00,VWS V13.01,2013-07-07 19:24:00,
2013-07-07 14:29:00,93.2,70.0,29.98,South,183,0.0,11.0,47,0.00,,---,0.00,VWS V13.01,2013-07-07 19:29:00,
2013-07-07 14:34:00,93.3,69.4,29.98,East,82,5.0,11.0,46,0.00,,---,0.00,VWS V13.01,2013-07-07 19:34:00,
2013-07-07 14:39:00,93.8,69.9,29.98,SE,125,5.0,6.0,46,0.00,,---,0.00,VWS V13.01,2013-07-07 19:39:00,
2013-07-07 14:44:00,93.5,68.3,29.98,ESE,118,0.0,9.0,44,0.00,,---,0.00,VWS V13.01,2013-07-07 19:44:00,
2013-07-07 14:49:00,93.6,70.3,29.98,South,190,3.0,12.0,47,0.00,,---,0.00,VWS V13.01,2013-07-07 19:49:00,
2013-07-07 14:54:00,93.5,69.6,29.98,SW,232,5.0,12.0,46,0.00,,---,0.00,VWS V13.01,2013-07-07 19:54:00,
2013-07-07 14:59:00,92.9,69.1,29.98,SE,140,5.0,12.0,46,0.00,,---,0.00,VWS V13.01,2013-07-07 19:59:00,
2013-07-07 15:04:00,92.8,68.4,29.98,SE,138,5.0,12.0,45,0.00,,---,0.00,VWS V13.01,2013-07-07 20:04:00,
2013-07-07 15:09:00,93.5,68.3,29.98,SE,145,0.0,4.0,44,0.00,,---,0.00,VWS V13.01,2013-07-07 20:09:00,
2013-07-07 15:14:00,94.1,68.9,29.97,SE,126,0.0,9.0,44,0.00,,---,0.00,VWS V13.01,2013-07-07 20:14:00,
2013-07-07 15:19:00,94.0,69.4,29.97,SE,132,1.0,9.0,45,0.00,,---,0.00,VWS V13.01,2013-07-07 20:19:00,
2013-07-07 15:24:00,93.9,69.3,29.97,ENE,67,3.0,9.0,45,0.00,,---,0.00,VWS V13.01,2013-07-07 20:24:00,
2013-07-07 15:29:00,94.6,70.0,29.97,East,88,1.0,9.0,45,0.00,,---,0.00,VWS V13.01,2013-07-07 20:29:00,
2013-07-07 15:34:00,95.3,69.3,29.97,ENE,74,2.0,9.0,43,0.00,,---,0.00,VWS V13.01,2013-07-07 20:34:00,
2013-07-07 15:39:00,95.3,68.6,29.97,SSE,165,0.0,4.0,42,0.00,,---,0.00,VWS V13.01,2013-07-07 20:39:00,
2013-07-07 15:44:00,94.7,69.4,29.97,SE,138,2.0,8.0,44,0.00,,---,0.00,VWS V13.01,2013-07-07 20:44:00,
2013-07-07 15:49:00,93.5,69.6,29.97,SSE,147,1.0,8.0,46,0.00,,---,0.00,VWS V13.01,2013-07-07 20:49:00,
2013-07-07 15:54:00,93.5,69.6,29.97,SE,140,0.0,8.0,46,0.00,,---,0.00,VWS V13.01,2013-07-07 20:54:00,
2013-07-07 15:59:00,94.8,68.2,29.97,SE,144,0.0,8.0,42,0.00,,---,0.00,VWS V13.01,2013-07-07 20:59:00,
2013-07-07 16:05:00,94.7,68.1,29.96,South,175,2.0,9.0,42,0.00,,---,0.00,VWS V13.01,2013-07-07 21:05:00,
2013-07-07 16:09:00,94.7,68.7,29.96,SSW,207,0.0,6.0,43,0.00,,---,0.00,VWS V13.01,2013-07-07 21:09:00,
2013-07-07 16:14:00,94.2,69.0,29.97,NE,45,0.0,6.0,44,0.00,,---,0.00,VWS V13.01,2013-07-07 21:14:00,
2013-07-07 16:19:00,94.2,69.0,29.96,South,184,0.0,10.0,44,0.00,,---,0.00,VWS V13.01,2013-07-07 21:19:00,
2013-07-07 16:24:00,94.1,68.9,29.96,South,184,2.0,10.0,44,0.00,,---,0.00,VWS V13.01,2013-07-07 21:24:00,
2013-07-07 16:29:00,93.7,69.8,29.96,SSE,153,4.0,10.0,46,0.00,,---,0.00,VWS V13.01,2013-07-07 21:29:00,
2013-07-07 16:34:00,94.3,69.7,29.96,East,84,1.0,10.0,45,0.00,,---,0.00,VWS V13.01,2013-07-07 21:34:00,
2013-07-07 16:40:00,94.0,70.1,29.96,SE,130,1.0,7.0,46,0.00,,---,0.00,VWS V13.01,2013-07-07 21:40:00,
2013-07-07 16:45:00,93.5,69.6,29.96,NE,39,0.0,10.0,46,0.00,,---,0.00,VWS V13.01,2013-07-07 21:45:00,
2013-07-07 16:50:00,93.2,69.4,29.95,ESE,122,3.0,12.0,46,0.00,,---,0.00,VWS V13.01,2013-07-07 21:50:00,
2013-07-07 16:55:00,93.7,70.4,29.95,ESE,121,0.0,12.0,47,0.00,,---,0.00,VWS V13.01,2013-07-07 21:55:00,
2013-07-07 17:00:00,93.6,69.7,29.95,SE,137,3.0,12.0,46,0.00,,---,0.00,VWS V13.01,2013-07-07 22:00:00,
2013-07-07 17:05:00,94.5,69.2,29.95,ESE,117,4.0,12.0,44,0.00,,---,0.00,VWS V13.01,2013-07-07 22:05:00,
2013-07-07 17:10:00,94.0,69.4,29.95,SSE,152,0.0,5.0,45,0.00,,---,0.00,VWS V13.01,2013-07-07 22:10:00,
2013-07-07 17:15:00,94.0,69.4,29.95,East,99,3.0,5.0,45,0.00,,---,0.00,VWS V13.01,2013-07-07 22:15:00,
2013-07-07 17:20:00,93.8,69.3,29.95,East,98,5.0,7.0,45,0.00,,---,0.00,VWS V13.01,2013-07-07 22:20:00,
2013-07-07 17:25:00,94.1,69.5,29.95,ESE,108,2.0,7.0,45,0.00,,---,0.00,VWS V13.01,2013-07-07 22:25:00,
2013-07-07 17:30:00,93.8,69.9,29.95,NNE,28,4.0,7.0,46,0.00,,---,0.00,VWS V13.01,2013-07-07 22:30:00,
2013-07-07 17:35:00,93.4,68.9,29.95,SE,129,3.0,7.0,45,0.00,,---,0.00,VWS V13.01,2013-07-07 22:35:00,
2013-07-07 17:40:00,92.6,68.8,29.95,SE,130,3.0,3.0,46,0.00,,---,0.00,VWS V13.01,2013-07-07 22:40:00,
2013-07-07 17:45:00,92.5,68.1,29.95,East,94,4.0,7.0,45,0.00,,---,0.00,VWS V13.01,2013-07-07 22:45:00,
2013-07-07 17:50:00,92.6,68.8,29.95,WSW,238,1.0,7.0,46,0.00,,---,0.00,VWS V13.01,2013-07-07 22:50:00,
2013-07-07 17:55:00,92.5,68.7,29.95,ESE,117,4.0,7.0,46,0.00,,---,0.00,VWS V13.01,2013-07-07 22:55:00,
2013-07-07 18:00:00,92.4,68.6,29.95,ESE,118,0.0,7.0,46,0.00,,---,0.00,VWS V13.01,2013-07-07 23:00:00,
2013-07-07 18:05:00,92.3,69.2,29.95,ESE,112,4.0,9.0,47,0.00,,---,0.00,VWS V13.01,2013-07-07 23:05:00,
2013-07-07 18:10:00,92.1,68.4,29.95,SSE,151,4.0,9.0,46,0.00,,---,0.00,VWS V13.01,2013-07-07 23:10:00,
2013-07-07 18:15:00,92.1,69.0,29.95,SE,142,0.0,9.0,47,0.00,,---,0.00,VWS V13.01,2013-07-07 23:15:00,
2013-07-07 18:20:00,92.1,69.0,29.95,SE,126,0.0,9.0,47,0.00,,---,0.00,VWS V13.01,2013-07-07 23:20:00,
2013-07-07 18:25:00,91.9,68.8,29.95,SE,141,0.0,9.0,47,0.00,,---,0.00,VWS V13.01,2013-07-07 23:25:00,
2013-07-07 18:30:00,91.8,68.7,29.95,SE,143,1.0,9.0,47,0.00,,---,0.00,VWS V13.01,2013-07-07 23:30:00,
2013-07-07 18:35:00,91.7,68.6,29.95,ESE,114,0.0,9.0,47,0.00,,---,0.00,VWS V13.01,2013-07-07 23:35:00,
2013-07-07 18:40:00,91.6,68.5,29.95,ESE,107,1.0,10.0,47,0.00,,---,0.00,VWS V13.01,2013-07-07 23:40:00,
2013-07-07 18:45:00,91.4,68.3,29.95,East,96,0.0,10.0,47,0.00,,---,0.00,VWS V13.01,2013-07-07 23:45:00,
2013-07-07 18:50:00,91.3,68.3,29.95,SE,134,1.0,10.0,47,0.00,,---,0.00,VWS V13.01,2013-07-07 23:50:00,
2013-07-07 18:55:00,91.1,68.7,29.95,SE,134,0.0,10.0,48,0.00,,---,0.00,VWS V13.01,2013-07-07 23:55:00,
2013-07-07 19:00:00,91.0,68.6,29.95,SE,125,1.0,10.0,48,0.00,,---,0.00,VWS V13.01,2013-07-08 00:00:00,
2013-07-07 19:05:00,90.7,68.3,29.95,ENE,76,3.0,10.0,48,0.00,,---,0.00,VWS V13.01,2013-07-08 00:05:00,
2013-07-07 19:10:00,90.4,68.1,29.95,East,96,1.0,12.0,48,0.00,,---,0.00,VWS V13.01,2013-07-08 00:10:00,
2013-07-07 19:15:00,90.2,68.5,29.96,SE,146,0.0,12.0,49,0.00,,---,0.00,VWS V13.01,2013-07-08 00:15:00,
2013-07-07 19:20:00,90.1,68.4,29.96,East,82,0.0,12.0,49,0.00,,---,0.00,VWS V13.01,2013-07-08 00:20:00,
2013-07-07 19:25:00,89.8,68.1,29.96,East,96,0.0,12.0,49,0.00,,---,0.00,VWS V13.01,2013-07-08 00:25:00,
2013-07-07 19:30:00,89.5,68.4,29.96,SE,146,0.0,12.0,50,0.00,,---,0.00,VWS V13.01,2013-07-08 00:30:00,
2013-07-07 19:35:00,89.3,68.8,29.96,SSE,147,0.0,12.0,51,0.00,,---,0.00,VWS V13.01,2013-07-08 00:35:00,
2013-07-07 19:40:00,89.1,68.6,29.96,SE,143,0.0,6.0,51,0.00,,---,0.00,VWS V13.01,2013-07-08 00:40:00,
2013-07-07 19:45:00,88.8,68.4,29.96,SSE,159,5.0,6.0,51,0.00,,---,0.00,VWS V13.01,2013-07-08 00:45:00,
2013-07-07 19:50:00,88.6,68.2,29.96,SE,145,2.0,6.0,51,0.00,,---,0.00,VWS V13.01,2013-07-08 00:50:00,
2013-07-07 19:55:00,88.4,68.6,29.96,SSE,153,0.0,6.0,52,0.00,,---,0.00,VWS V13.01,2013-07-08 00:55:00,
2013-07-07 20:00:00,88.2,68.4,29.96,SE,136,2.0,8.0,52,0.00,,---,0.00,VWS V13.01,2013-07-08 01:00:00,
2013-07-07 20:06:00,88.0,68.7,29.96,SE,137,0.0,8.0,53,0.00,,---,0.00,VWS V13.01,2013-07-08 01:06:00,
2013-07-07 20:11:00,87.8,68.6,29.96,SE,138,0.0,4.0,53,0.00,,---,0.00,VWS V13.01,2013-07-08 01:11:00,
2013-07-07 20:16:00,87.5,68.3,29.97,SE,140,0.0,5.0,53,0.00,,---,0.00,VWS V13.01,2013-07-08 01:16:00,
2013-07-07 20:21:00,87.3,68.1,29.96,SSE,148,0.0,10.0,53,0.00,,---,0.00,VWS V13.01,2013-07-08 01:21:00,
2013-07-07 20:26:00,87.1,68.4,29.97,SSE,148,0.0,10.0,54,0.00,,---,0.00,VWS V13.01,2013-07-08 01:26:00,
2013-07-07 20:31:00,86.8,68.2,29.97,SSE,148,0.0,10.0,54,0.00,,---,0.00,VWS V13.01,2013-07-08 01:31:00,
2013-07-07 20:36:00,86.7,68.1,29.97,SSE,148,0.0,10.0,54,0.00,,---,0.00,VWS V13.01,2013-07-08 01:36:00,
2013-07-07 20:41:00,86.5,68.4,29.97,SSE,148,0.0,4.0,55,0.00,,---,0.00,VWS V13.01,2013-07-08 01:41:00,
2013-07-07 20:46:00,86.3,68.2,29.97,SE,138,0.0,6.0,55,0.00,,---,0.00,VWS V13.01,2013-07-08 01:46:00,
2013-07-07 20:51:00,86.1,68.6,29.97,SE,138,0.0,6.0,56,0.00,,---,0.00,VWS V13.01,2013-07-08 01:51:00,
2013-07-07 20:56:00,85.9,68.4,29.98,SE,136,0.0,9.0,56,0.00,,---,0.00,VWS V13.01,2013-07-08 01:56:00,
2013-07-07 21:01:00,85.8,68.3,29.98,SE,134,4.0,9.0,56,0.00,,---,0.00,VWS V13.01,2013-07-08 02:01:00,
2013-07-07 21:06:00,85.6,68.6,29.98,SE,134,0.0,9.0,57,0.00,,---,0.00,VWS V13.01,2013-07-08 02:06:00,
2013-07-07 21:11:00,85.4,68.4,29.98,SE,134,1.0,5.0,57,0.00,,---,0.00,VWS V13.01,2013-07-08 02:11:00,
2013-07-07 21:16:00,85.2,68.3,29.98,SE,133,0.0,5.0,57,0.00,,---,0.00,VWS V13.01,2013-07-08 02:16:00,
2013-07-07 21:21:00,85.0,68.6,29.98,SE,134,3.0,5.0,58,0.00,,---,0.00,VWS V13.01,2013-07-08 02:21:00,
2013-07-07 21:26:00,84.8,68.4,29.98,SE,137,0.0,7.0,58,0.00,,---,0.00,VWS V13.01,2013-07-08 02:26:00,
2013-07-07 21:31:00,84.7,68.8,29.99,SE,138,0.0,7.0,59,0.00,,---,0.00,VWS V13.01,2013-07-08 02:31:00,
2013-07-07 21:36:00,84.5,68.6,29.99,SE,138,4.0,7.0,59,0.00,,---,0.00,VWS V13.01,2013-07-08 02:36:00,
2013-07-07 21:41:00,84.4,68.5,29.99,SE,136,0.0,8.0,59,0.00,,---,0.00,VWS V13.01,2013-07-08 02:41:00,
2013-07-07 21:46:00,84.3,68.9,29.99,SE,136,0.0,8.0,60,0.00,,---,0.00,VWS V13.01,2013-07-08 02:46:00,
2013-07-07 21:51:00,84.1,68.7,29.99,SE,136,0.0,8.0,60,0.00,,---,0.00,VWS V13.01,2013-07-08 02:51:00,
2013-07-07 21:56:00,84.0,68.6,29.99,SE,138,0.0,8.0,60,0.00,,---,0.00,VWS V13.01,2013-07-08 02:56:00,
2013-07-07 22:01:00,83.8,68.9,29.99,SE,138,0.0,8.0,61,0.00,,---,0.00,VWS V13.01,2013-07-08 03:01:00,
2013-07-07 22:06:00,83.7,68.8,29.99,SE,138,0.0,8.0,61,0.00,,---,0.00,VWS V13.01,2013-07-08 03:06:00,
2013-07-07 22:11:00,83.6,68.7,29.99,SE,138,3.0,3.0,61,0.00,,---,0.00,VWS V13.01,2013-07-08 03:11:00,
2013-07-07 22:16:00,83.4,69.0,29.99,SE,138,0.0,4.0,62,0.00,,---,0.00,VWS V13.01,2013-07-08 03:16:00,
2013-07-07 22:21:00,83.2,68.8,29.99,SE,138,0.0,4.0,62,0.00,,---,0.00,VWS V13.01,2013-07-08 03:21:00,
2013-07-07 22:26:00,83.1,69.2,29.99,SE,138,0.0,4.0,63,0.00,,---,0.00,VWS V13.01,2013-07-08 03:26:00,
2013-07-07 22:31:00,83.0,69.1,30.00,SE,138,0.0,4.0,63,0.00,,---,0.00,VWS V13.01,2013-07-08 03:31:00,
2013-07-07 22:36:00,82.9,69.0,30.00,SE,138,3.0,4.0,63,0.00,,---,0.00,VWS V13.01,2013-07-08 03:36:00,
2013-07-07 22:41:00,82.7,68.8,30.00,SE,138,0.0,4.0,63,0.00,,---,0.00,VWS V13.01,2013-07-08 03:41:00,
2013-07-07 22:46:00,82.6,69.2,30.00,SE,138,0.0,4.0,64,0.00,,---,0.00,VWS V13.01,2013-07-08 03:46:00,
2013-07-07 22:51:00,82.5,69.1,30.00,SE,138,0.0,5.0,64,0.00,,---,0.00,VWS V13.01,2013-07-08 03:51:00,
2013-07-07 22:56:00,82.3,69.4,30.00,SE,138,0.0,5.0,65,0.00,,---,0.00,VWS V13.01,2013-07-08 03:56:00,
2013-07-07 23:01:00,82.2,69.3,30.00,SE,138,0.0,5.0,65,0.00,,---,0.00,VWS V13.01,2013-07-08 04:01:00,
2013-07-07 23:03:00,82.2,69.3,30.00,SE,138,0.0,5.0,65,0.00,,---,0.00,VWS V13.01,2013-07-08 04:03:00,
2013-07-07 23:08:00,82.0,69.5,30.00,SE,138,0.0,0.0,66,0.00,,---,0.00,VWS V13.01,2013-07-08 04:08:00,
2013-07-07 23:13:00,82.0,69.5,30.00,SE,139,0.0,6.0,66,0.00,,---,0.00,VWS V13.01,2013-07-08 04:13:00,
2013-07-07 23:18:00,81.8,69.3,30.00,SE,138,0.0,6.0,66,0.00,,---,0.00,VWS V13.01,2013-07-08 04:18:00,
2013-07-07 23:23:00,81.7,69.2,30.00,SE,139,0.0,6.0,66,0.00,,---,0.00,VWS V13.01,2013-07-08 04:23:00,
2013-07-07 23:28:00,81.6,69.6,30.00,SE,139,3.0,6.0,67,0.00,,---,0.00,VWS V13.01,2013-07-08 04:28:00,
2013-07-07 23:33:00,81.5,69.5,30.01,SE,138,0.0,6.0,67,0.00,,---,0.00,VWS V13.01,2013-07-08 04:33:00,
2013-07-07 23:38:00,81.4,69.4,30.01,SE,138,0.0,1.0,67,0.00,,---,0.00,VWS V13.01,2013-07-08 04:38:00,
2013-07-07 23:43:00,81.3,69.3,30.01,SE,138,0.0,4.0,67,0.00,,---,0.00,VWS V13.01,2013-07-08 04:43:00,
2013-07-07 23:48:00,81.1,69.6,30.01,SE,138,0.0,4.0,68,0.00,,---,0.00,VWS V13.01,2013-07-08 04:48:00,
2013-07-07 23:53:00,81.0,69.4,30.01,SE,138,0.0,5.0,68,0.00,,---,0.00,VWS V13.01,2013-07-08 04:53:00,
2013-07-07 23:58:00,80.9,69.8,30.01,SE,139,0.0,5.0,69,0.00,,---,0.00,VWS V13.01,2013-07-08 04:58:00,